Hourly Weather Shannon

Today, 30 October, Friday

Time Temperature Precipitation Wind Pressure Humidity
00:00 +12°C° 0 mm 4 mps 752 mmHg 94%
01:00 +12°C° 0 mm 3 mps 753 mmHg 94%
02:00 +11°C° 0 mm 3 mps 753 mmHg 94%
03:00 +11°C° 0 mm 3 mps 754 mmHg 93%
04:00 +11°C° 0 mm 3 mps 755 mmHg 92%
05:00 +10°C° 0 mm 3 mps 756 mmHg 91%
06:00 +10°C° 0 mm 3 mps 756 mmHg 90%
07:00 +10°C° 0 mm 2 mps 757 mmHg 88%
08:00 +9°C° 0 mm 2 mps 758 mmHg 86%
09:00 +10°C° 0 mm 2 mps 758 mmHg 81%
10:00 +10°C° 0 mm 2 mps 758 mmHg 76%
11:00 +11°C° 0 mm 3 mps 759 mmHg 70%
12:00 +12°C° 0 mm 2 mps 759 mmHg 70%
13:00 +12°C° 0 mm 1 mps 759 mmHg 69%
14:00 +10°C° 0 mm 0 mps 759 mmHg 68%
15:00 +10°C° 0 mm 1 mps 758 mmHg 73%
16:00 +9°C° 0 mm 1 mps 758 mmHg 77%
17:00 +7°C° 0 mm 2 mps 757 mmHg 82%
18:00 +8°C° 0 mm 2 mps 757 mmHg 83%
19:00 +8°C° 0 mm 3 mps 756 mmHg 85%
20:00 +8°C° 0 mm 3 mps 755 mmHg 86%
21:00 +9°C° 0 mm 3 mps 753 mmHg 88%
22:00 +9°C° 0 mm 3 mps 752 mmHg 91%
23:00 +10°C° 0 mm 3 mps 750 mmHg 93%

Tomorrow, 31 October, Saturday

Time Temperature Precipitation Wind Pressure Humidity
00:00 +11°C° 0.1 mm 4 mps 749 mmHg 93%
01:00 +12°C° 0.1 mm 4 mps 747 mmHg 94%
02:00 +13°C° 0.1 mm 4 mps 746 mmHg 94%
03:00 +13°C° 0.4 mm 4 mps 745 mmHg 94%
04:00 +13°C° 0.4 mm 5 mps 744 mmHg 94%
05:00 +12°C° 0.4 mm 5 mps 743 mmHg 93%
06:00 +12°C° 1.4 mm 5 mps 742 mmHg 93%
07:00 +10°C° 1.4 mm 6 mps 742 mmHg 92%
08:00 +9°C° 1.4 mm 6 mps 741 mmHg 92%
09:00 +9°C° 0.1 mm 7 mps 742 mmHg 89%
10:00 +8°C° 0.1 mm 9 mps 743 mmHg 86%
11:00 +9°C° 0.1 mm 10 mps 744 mmHg 83%
12:00 +8°C° 0.1 mm 10 mps 745 mmHg 82%
13:00 +8°C° 0.1 mm 9 mps 746 mmHg 81%
14:00 +7°C° 0.1 mm 8 mps 747 mmHg 80%
15:00 +8°C° 0.1 mm 7 mps 748 mmHg 82%
16:00 +7°C° 0.1 mm 5 mps 749 mmHg 84%
17:00 +7°C° 0.1 mm 4 mps 750 mmHg 85%
18:00 +7°C° 0.1 mm 4 mps 749 mmHg 86%
19:00 +7°C° 0.1 mm 4 mps 749 mmHg 87%
20:00 +6°C° 0.1 mm 4 mps 749 mmHg 88%
21:00 +6°C° 0.8 mm 5 mps 747 mmHg 90%
22:00 +5°C° 0.8 mm 6 mps 745 mmHg 91%
23:00 +5°C° 0.8 mm 8 mps 743 mmHg 93%

Day after tomorrow, 1 November, Sunday

Time Temperature Precipitation Wind Pressure Humidity
00:00 +7°C° 0.5 mm 8 mps 741 mmHg 92%
01:00 +9°C° 0.5 mm 8 mps 739 mmHg 90%
02:00 +11°C° 0.5 mm 8 mps 738 mmHg 89%
03:00 +10°C° 0.1 mm 9 mps 739 mmHg 85%
04:00 +8°C° 0.1 mm 9 mps 740 mmHg 81%
05:00 +7°C° 0.1 mm 9 mps 740 mmHg 77%
06:00 +6°C° 0 mm 9 mps 741 mmHg 77%
07:00 +6°C° 0 mm 8 mps 742 mmHg 77%
08:00 +6°C° 0 mm 8 mps 743 mmHg 77%
09:00 +7°C° 0.1 mm 8 mps 744 mmHg 75%
10:00 +8°C° 0.1 mm 7 mps 744 mmHg 74%
11:00 +9°C° 0.1 mm 7 mps 745 mmHg 72%
12:00 +9°C° 0.1 mm 7 mps 745 mmHg 73%
13:00 +9°C° 0.1 mm 6 mps 745 mmHg 73%
14:00 +9°C° 0.1 mm 6 mps 745 mmHg 74%
15:00 +8°C° 0.1 mm 5 mps 746 mmHg 78%
16:00 +7°C° 0.1 mm 4 mps 746 mmHg 82%
17:00 +7°C° 0.1 mm 3 mps 746 mmHg 86%
18:00 +7°C° 0.1 mm 3 mps 746 mmHg 86%
19:00 +7°C° 0.1 mm 3 mps 747 mmHg 87%
20:00 +6°C° 0.1 mm 4 mps 747 mmHg 87%
21:00 +6°C° 0.1 mm 4 mps 747 mmHg 86%
22:00 +6°C° 0.1 mm 4 mps 747 mmHg 86%
23:00 +6°C° 0.1 mm 4 mps 748 mmHg 85%

2 November, Monday

Time Temperature Precipitation Wind Pressure Humidity
00:00 +5°C° 0.1 mm 3 mps 747 mmHg 86%
01:00 +5°C° 0.1 mm 3 mps 747 mmHg 87%
02:00 +5°C° 0.1 mm 3 mps 747 mmHg 88%
03:00 +4°C° 0.1 mm 4 mps 747 mmHg 87%
04:00 +4°C° 0.1 mm 4 mps 748 mmHg 86%
05:00 +4°C° 0.1 mm 4 mps 748 mmHg 86%
06:00 +4°C° 0.2 mm 4 mps 748 mmHg 85%
07:00 +5°C° 0.2 mm 4 mps 749 mmHg 84%
08:00 +5°C° 0.2 mm 5 mps 749 mmHg 84%
09:00 +4°C° 0.4 mm 6 mps 749 mmHg 80%
10:00 +5°C° 0.4 mm 7 mps 750 mmHg 76%
11:00 +6°C° 0.4 mm 8 mps 750 mmHg 72%
12:00 +5°C° 0.3 mm 9 mps 751 mmHg 72%
13:00 +5°C° 0.3 mm 9 mps 751 mmHg 72%
14:00 +5°C° 0.3 mm 9 mps 751 mmHg 72%
15:00 +5°C° 0 mm 8 mps 751 mmHg 73%
16:00 +4°C° 0 mm 8 mps 751 mmHg 75%
17:00 +4°C° 0 mm 7 mps 751 mmHg 77%
18:00 +4°C° 0.1 mm 7 mps 752 mmHg 78%
19:00 +5°C° 0.1 mm 7 mps 752 mmHg 80%
20:00 +5°C° 0.1 mm 6 mps 753 mmHg 82%
21:00 +5°C° 0.3 mm 6 mps 753 mmHg 83%
22:00 +5°C° 0.3 mm 6 mps 753 mmHg 84%
23:00 +5°C° 0.3 mm 6 mps 753 mmHg 85%

3 November, Tuesday

Time Temperature Precipitation Wind Pressure Humidity
00:00 +5°C° 0.3 mm 6 mps 754 mmHg 85%
01:00 +5°C° 0.3 mm 6 mps 754 mmHg 86%
02:00 +6°C° 0.3 mm 7 mps 755 mmHg 86%
03:00 +7°C° 0.3 mm 6 mps 756 mmHg 86%
04:00 +7°C° 0.3 mm 6 mps 757 mmHg 86%
05:00 +7°C° 0.3 mm 6 mps 758 mmHg 86%
06:00 +7°C° 0.1 mm 6 mps 759 mmHg 85%
07:00 +7°C° 0.1 mm 6 mps 760 mmHg 84%
08:00 +7°C° 0.1 mm 6 mps 761 mmHg 83%
09:00 +8°C° 0.1 mm 7 mps 762 mmHg 80%
10:00 +8°C° 0.1 mm 7 mps 763 mmHg 77%
11:00 +9°C° 0.1 mm 8 mps 764 mmHg 74%
12:00 +9°C° 0.1 mm 7 mps 765 mmHg 74%
13:00 +9°C° 0.1 mm 7 mps 766 mmHg 75%
14:00 +8°C° 0.1 mm 7 mps 767 mmHg 75%
15:00 +7°C° 0 mm 6 mps 768 mmHg 77%
16:00 +6°C° 0 mm 5 mps 768 mmHg 79%
17:00 +6°C° 0 mm 4 mps 769 mmHg 81%
18:00 +5°C° 0 mm 4 mps 770 mmHg 82%
19:00 +5°C° 0 mm 4 mps 770 mmHg 84%
20:00 +5°C° 0 mm 3 mps 771 mmHg 86%
21:00 +5°C° 0 mm 3 mps 771 mmHg 86%
22:00 +5°C° 0 mm 3 mps 772 mmHg 85%
23:00 +4°C° 0 mm 3 mps 772 mmHg 85%

4 November, Wednesday

Time Temperature Precipitation Wind Pressure Humidity
00:00 +5°C° 0.1 mm 3 mps 772 mmHg 85%
01:00 +7°C° 0.1 mm 3 mps 772 mmHg 86%
02:00 +7°C° 0.1 mm 3 mps 772 mmHg 86%
03:00 +7°C° 0.2 mm 3 mps 772 mmHg 87%
04:00 +7°C° 0.2 mm 3 mps 772 mmHg 88%
05:00 +7°C° 0.2 mm 3 mps 772 mmHg 89%
06:00 +7°C° 0.1 mm 3 mps 772 mmHg 89%
07:00 +7°C° 0.1 mm 3 mps 773 mmHg 89%
08:00 +7°C° 0.1 mm 2 mps 773 mmHg 90%
09:00 +8°C° 0 mm 3 mps 773 mmHg 85%
10:00 +8°C° 0 mm 4 mps 774 mmHg 80%
11:00 +8°C° 0 mm 4 mps 774 mmHg 75%
12:00 +8°C° 0 mm 4 mps 775 mmHg 76%
13:00 +9°C° 0 mm 3 mps 775 mmHg 76%
14:00 +9°C° 0 mm 3 mps 775 mmHg 76%
15:00 +8°C° 0 mm 3 mps 775 mmHg 81%
16:00 +7°C° 0 mm 2 mps 776 mmHg 86%
17:00 +5°C° 0 mm 2 mps 776 mmHg 91%
18:00 +6°C° 0 mm 1 mps 776 mmHg 91%
19:00 +6°C° 0 mm 1 mps 777 mmHg 92%
20:00 +5°C° 0 mm 1 mps 777 mmHg 93%
21:00 +5°C° 0 mm 1 mps 777 mmHg 93%
22:00 +5°C° 0 mm 1 mps 778 mmHg 93%
23:00 +4°C° 0 mm 1 mps 778 mmHg 93%
Show more

We Need Your Consent

Meteoprog and our Service Providers may store and access personal data such as cookies, device identifiers or other similar technologies on your device and process such data to personalise content and ads, as well as provide social media features and to analyse the traffic.

  • Store and/or access information on your device

    Cookies, device identifiers or other information can be stored or accessed on your device for the purposes indicated above.

  • Personalised ads and content, ad and content measurement, audience insights, and products development

    Ads and content can be personalised based on a profile. More data can be added to better personalise ads and content. Ad and content performance can be measured. Insights about the audience who saw the ads and content can be derived. Such data can be used to develop or improve user’s experience, systems and software.

By clicking ‘I Agree’ you will allow the use of indicated cookies, device identifiers, web beacons or other similar technologies. Your settings can be changed in the browser on your device.

For certain purposes, legitimate interests may be relied on, rather than consent. You can read more about this in our Privacy and Cookie Policy.